Location: Neuvy Saint Sepulchre
(46.5953°N, 1.8122°E)
Time: 20:28:49
(UTC+01:00)

ISS - Pass Details

Date: 24 March 2023
Orbit: 414 x 422 km, 51.6° (Epoch: 25 March)

Event Time Altitude Azimuth Distance (km) Brightness Sun altitude
Rises 20:15:00 0° 281° (W) 2,357 2.2 -11.8°
Reaches altitude 10° 20:17:14 10° 291° (WNW) 1,493 0.6 -12.1°
Maximum altitude 20:20:18 33° 358° (N) 727 -2.4 -12.6°
Enters shadow 20:22:45 14° 59° (ENE) 1,266 -1.7 -13.0°
